Home > Weather > Cozumel > Past weeks

Flag for Mexico Weather for the Past 2 Weeks in Cozumel, Quintana Roo, Mexico

Now
75 °F

Passing clouds.


Feels Like: 74 °F
Forecast: 74 / 85 °F
Wind: 7 mph from North

Location: Cozumel Civ / Mil

Current Time: May 5, 2016 at 4:41:44 AM

Latest Report: May 5, 2016 at 12:46 AM


Visibility: 7 mi

Pressure: 29.85 "Hg

Humidity: 94%

Dew Point: 73 °F

Location of CozumelLocation

Historic Weather in Cozumel — Graph

°F

Cozumel Temperature Yesterday

Maximum temperature yesterday: 90 °F (at 2:50 PM)
Minimum temperature yesterday: 72 °F (at 4:47 PM)
Average temperature yesterday: 78 °F

High & Low Weather Summary for the Past Weeks

 TemperatureHumidityPressure
High90 °F (May 4, 2:50 PM)100% (Apr 20, 5:44 AM)30.04 "Hg (Apr 20, 5:44 AM)
Low64 °F (Apr 22, 6:47 AM)58% (Apr 20, 9:46 AM)29.76 "Hg (Apr 30, 4:53 PM)
Average77 °F87%29.89 "Hg
* Reported Apr 20 12:53 AM — May 5 12:46 AM, Cozumel, Weather by CustomWeather, © 2016

Note: Actual official high and low records may vary slightly from our data, if they occured in-between our weather recording intervals... More about our weather records

Advertising

Cozumel Weather History for the Previous 24 Hours

Scroll right to see more
 ConditionsComfort  
Time TempWeatherWind HumidityBarometerVisibility
12:46 AM
Thu, May 5
75 °FPassing clouds.7 mph94%29.85 "Hg7 mi
11:43 PM
Wed, May 4
75 °FPassing clouds.8 mph94%29.90 "Hg7 mi
10:45 PM75 °FPassing clouds.12 mph94%29.91 "Hg7 mi
10:03 PM75 °FPassing clouds.14 mph94%29.91 "Hg8 mi
8:46 PM75 °FPassing clouds.9 mph94%29.87 "Hg7 mi
7:47 PM72 °FScattered clouds.No wind100%29.85 "Hg7 mi
6:49 PM72 °FBroken clouds.No wind100%29.83 "Hg7 mi
5:44 PM72 °FLight rain. Cloudy.6 mph100%29.84 "Hg5 mi
4:47 PM72 °FHeavy rain. Mostly cloudy.15 mph100%29.86 "Hg1 mi
3:46 PM84 °FBroken clouds.8 mph74%29.80 "Hg7 mi
2:50 PM90 °FBroken clouds.7 mph59%29.79 "Hg8 mi
1:45 PM88 °FScattered clouds.8 mph66%29.82 "Hg8 mi
12:46 PM88 °FScattered clouds.10 mph70%29.86 "Hg8 mi
11:47 AM84 °FScattered clouds.10 mph79%29.87 "Hg8 mi
10:43 AM86 °FScattered clouds.8 mph75%29.88 "Hg8 mi
9:46 AM84 °FScattered clouds.8 mph79%29.91 "Hg8 mi
7:45 AM79 °FScattered clouds.No wind94%29.90 "Hg8 mi
6:48 AM73 °FPassing clouds.No wind100%29.87 "Hg8 mi
5:46 AM73 °FPassing clouds.No wind100%29.88 "Hg7 mi
4:47 AM75 °FPassing clouds.No wind100%29.87 "Hg7 mi
Weather by CustomWeather, © 2016

See weather overviewHow to use our weather pages